TimeCST,TemperatureF,Dew PointF,Humidity,Sea Level PressureIn,VisibilityMPH,Wind Direction,Wind SpeedMPH,Gust SpeedMPH,PrecipitationIn,Events,Conditions,WindDirDegrees,DateUTC
6:00 AM,74,71,88,29.86,12,NE,5.8,,,,Overcast,40,2013-10-30 12:00:00
6:00 AM,75.2,71.6,89,29.84,6.2,NE,5.8,-,N/A,,Overcast,40,2013-10-30 12:00:00
7:00 AM,78.8,71.6,78,29.86,6.2,East,3.5,-,N/A,,Overcast,80,2013-10-30 13:00:00
8:00 AM,82.4,71.6,70,29.88,6.2,East,2.3,-,N/A,,Mostly Cloudy,90,2013-10-30 14:00:00
9:00 AM,85,72,57,29.92,12,East,9.2,,,,Overcast,80,2013-10-30 15:00:00
9:00 AM,86.0,71.6,62,29.91,6.2,East,9.2,-,N/A,,Mostly Cloudy,80,2013-10-30 15:00:00
10:00 AM,87.8,71.6,58,29.89,6.2,East,10.4,-,N/A,,Mostly Cloudy,80,2013-10-30 16:00:00
11:00 AM,87.8,71.6,58,29.87,6.2,ESE,5.8,-,N/A,,Mostly Cloudy,120,2013-10-30 17:00:00
12:00 PM,89,71,46,29.86,12,East,4.6,,,,Overcast,100,2013-10-30 18:00:00
12:00 PM,-9999,71.6,N/A,29.84,6.2,East,4.6,-,N/A,,Scattered Clouds,100,2013-10-30 18:00:00
1:00 PM,87.8,73.4,62,29.81,6.2,NNE,6.9,-,N/A,,Mostly Cloudy,30,2013-10-30 19:00:00
2:00 PM,82.4,73.4,74,29.78,6.2,NNE,10.4,-,N/A,,Mostly Cloudy,20,2013-10-30 20:00:00
3:00 PM,85,73,60,29.79,12,NNE,6.9,,,,Overcast,30,2013-10-30 21:00:00
3:00 PM,84.2,73.4,70,29.77,6.2,NNE,6.9,-,N/A,,Mostly Cloudy,30,2013-10-30 21:00:00
4:00 PM,84.2,73.4,70,29.78,6.2,North,4.6,-,N/A,,Mostly Cloudy,10,2013-10-30 22:00:00
5:00 PM,80.6,73.4,79,29.80,6.2,North,3.5,-,N/A,,Mostly Cloudy,10,2013-10-30 23:00:00
6:00 PM,79,73,77,29.85,12,South,3.5,,,,Partly Cloudy,190,2013-10-31 00:00:00
6:00 PM,78.8,73.4,83,29.83,6.2,South,3.5,-,N/A,,Scattered Clouds,190,2013-10-31 00:00:00
7:00 PM,80.6,73.4,79,29.86,6.2,SE,5.8,-,N/A,,Partly Cloudy,140,2013-10-31 01:00:00
8:00 PM,80.6,73.4,79,29.88,6.2,SSE,6.9,-,N/A,,Partly Cloudy,150,2013-10-31 02:00:00